User: anonymous   Login
Location: Chagrin Falls Park
(41.4139°N, 81.3865°W)
Time: 23:38:11
(UTC+00:00)
Language:

STARLINK-2651 - Orbit

View from above orbital plane
View from above orbital plane
View from above satellite
View from above satellite

Ground track
Ground track

The orbit data is extracted from the following two-line orbital elements,

1 48654C 21044S   21296.86145006  .00008142  00000-0  54559-3 0  2964
2 48654  53.0550  94.5493 0001422  80.6216  17.6677 15.06386792    15
Epoch (UTC): 23 October 2021 20:40:29
Eccentricity: 0.0001422
inclination: 53.0550°
perigee height: 546 km
apogee height: 548 km
right ascension of ascending node: 94.5493°
argument of perigee: 80.6216°
revolutions per day: 15.06386792
mean anomaly at epoch: 17.6677°
orbit number at epoch: 1

The dashed part of the orbit path shows where the satellite is in the earth's shadow,  

DLR